Location: Bubry
(47.9634°N, 3.1711°W)
Time: 16:35:56
(UTC+00:00)

Daily predictions for brighter satellites

Satellite Brightness Start Highest point End
(mag) Time Altitude Azimuth Time Altitude Azimuth Time Altitude Azimuth
USA 276 2.3 20:53:53 10° SW 20:56:45 41° SSE 20:59:37 10° E
X-37B 1.1 20:54:38 10° SW 20:57:12 32° SSE 20:59:47 10° E
Helios 1A Rocket 3.9 20:54:03 10° SE 20:57:43 33° ENE 21:01:26 10° N
NOSS 2-1 (C) 4.1 20:54:17 10° NW 20:58:39 70° NE 21:04:48 10° SE
SPOT 5 3.4 20:55:59 10° SE 21:00:05 39° ENE 21:04:08 10° N
Ariane Rocket 3.2 20:57:35 10° SSE 21:02:41 79° WSW 21:07:48 10° NNW
USA 267 4.2 20:57:54 10° ENE 21:02:59 24° SE 21:08:03 10° S
Cosmos 1954 Rocket 4.1 20:59:55 10° NNW 21:05:14 86° ENE 21:10:28 10° SSE
SPOT 1/Viking Rocket 4.0 21:00:53 10° S 21:05:58 64° WSW 21:11:07 10° NNW
USA 32 4.2 21:01:04 10° SSE 21:06:10 58° E 21:11:18 10° NNE
RESURS DK-1 3.8 21:03:01 10° N 21:06:35 27° NE 21:10:07 10° ESE
NOSS 2-1 (D) 4.1 21:04:34 10° NW 21:09:00 81° NE 21:15:19 10° SE
Resurs 01 Rocket 2.7 21:08:19 10° S 21:12:33 43° W 21:16:49 10° NNW
Cosmos 1455 2.2 21:09:01 10° N 21:12:49 66° E 21:16:36 10° SSE
Lacrosse 5 2.0 21:19:02 10° WNW 21:24:08 69° SW 21:28:44 13° SE
Terra 2.3 21:21:16 11° SE 21:25:38 50° ENE 21:30:15 10° N
Cosmos 1025 Rocket 3.7 21:25:51 10° SSW 21:30:01 55° WNW 21:34:16 10° N
USA 102 3.4 21:23:43 12° SE 21:31:33 40° E 21:33:14 17° NE
Meteor 2-5 Rocket 4.3 21:27:58 10° SSW 21:33:25 61° WNW 21:38:57 10° N
Spot 2 Rocket 3.5 21:28:27 10° SSE 21:33:28 85° ENE 21:38:36 10° NNW
CZ-4B R/B 3.1 21:31:24 10° N 21:33:57 28° WNW 21:36:29 10° SW
Cosmos 1980 Rocket 3.7 21:30:46 10° N 21:35:34 26° NE 21:40:17 10° ESE
ATLAS 2AS CENTAUR R/B 2.9 21:28:56 10° NW 21:35:59 65° WSW 21:41:56 13° SSE
Cosmos 1697 Rocket 3.4 21:32:37 10° NNW 21:38:02 44° NE 21:42:50 13° SE
USA 234 4.0 21:32:21 10° E 21:38:40 52° NNE 21:44:59 10° NW
Cosmos 1452 Rocket 3.7 21:36:32 10° S 21:41:40 55° ESE 21:46:48 10° NNE
Cosmos 1703 3.5 21:39:26 13° SSE 21:42:39 50° E 21:46:24 10° NNE
Cosmos 1656 3.6 21:37:48 10° NNW 21:43:18 89° ENE 21:47:55 15° SSE
ARIANE 5 R/B 2.9 21:41:11 15° SE 21:44:44 55° ENE 21:49:05 10° N
CZ-2C R/B 3.7 21:45:46 10° NNE 21:50:21 67° ESE 21:54:43 11° S
Cosmos 1110 Rocket 4.4 21:48:03 12° S 21:52:40 44° ESE 21:57:41 10° NE
SL-8 R/B 3.7 21:52:32 10° W 21:57:22 82° SSW 22:02:04 11° ESE
Cosmos 2074 Rocket 4.1 21:54:03 10° N 22:00:22 83° W 22:05:53 14° S
Cosmos 2228 2.9 21:56:52 10° N 22:01:07 77° E 22:04:03 19° SSE
Cosmos 1536 Rocket 3.8 22:00:07 10° SSW 22:04:25 71° W 22:08:47 10° N
Cosmos 1833 Rocket 2.8 22:00:19 10° S 22:05:45 54° ESE 22:11:14 10° NE
Cosmos 2084 Rocket 4.5 22:02:31 10° NNW 22:06:06 35° NE 22:09:23 13° ESE
ERS-1 Rocket 3.4 22:03:26 13° S 22:07:50 57° W 22:12:49 10° NNW
Meteor 1-21 Rocket 4.2 22:03:29 14° S 22:08:13 66° E 22:13:50 10° NNE
USA 102 4.4 22:03:12 18° SSE 22:09:59 53° SW 22:12:30 10° WNW
Cosmos 1606 Rocket 3.6 22:06:40 10° N 22:10:58 63° ENE 22:13:37 22° SSE
Nadezhda 1 Rocket 3.9 22:11:21 14° S 22:16:39 78° E 22:22:44 10° NNE
Cosmos 2360 4.2 22:14:21 10° NNW 22:20:08 84° ENE 22:24:01 22° SSE
Cosmos 968 Rocket 4.0 22:18:43 10° NNW 22:23:46 49° ENE 22:27:10 20° SE
Cosmos 2154 Rocket 4.1 22:20:20 10° NNW 22:26:34 75° W 22:31:18 18° S
Tiangong 3.6 22:25:37 10° SW 22:26:05 11° SW 22:26:05 11° SW
Cosmos 1741 Rocket 4.4 22:22:06 10° NNW 22:27:19 57° WSW 22:30:53 20° S
Lacrosse 5 rocket 3.7 22:27:27 10° WSW 22:28:27 11° WSW 22:29:28 10° SW
Cosmos 2082 Rocket 2.8 22:27:58 22° SSE 22:30:54 37° ESE 22:36:07 10° NE
ASTEX 1 3.6 22:27:19 10° NNE 22:32:17 60° E 22:35:10 25° SSE
USA 276 2.4 22:29:24 10° W 22:32:23 63° N 22:35:23 10° ENE
X-37B 0.6 22:29:43 10° WSW 22:32:25 44° S 22:32:25 44° S
Cosmos 1726 Rocket 3.5 22:31:00 10° N 22:35:21 87° ENE 22:37:38 28° S
ADEOS Rocket 4.4 22:30:43 14° ESE 22:36:20 39° ENE 22:43:19 10° N
SPOT 5 4.5 22:34:46 10° SSW 22:38:19 23° W 22:41:49 10° NW
Cosmos 1825 3.7 22:38:07 20° ESE 22:38:56 22° E 22:41:51 10° NE
Meteor 2-1 Rocket 4.3 22:34:45 10° NNW 22:40:14 69° W 22:43:53 22° S
RESURS DK-1 3.3 22:40:49 10° NW 22:44:39 37° WSW 22:46:32 24° SSW
USA 267 3.2 22:40:08 10° NE 22:46:43 76° SE 22:53:15 10° SW
SL-8 Rocket 4.0 22:48:35 10° N 22:54:51 74° E 22:58:31 26° SSE
ALOS 2 3.6 22:53:39 22° ESE 22:55:48 36° ENE 22:59:50 10° N
FALCON 9 DEB 4.5 22:59:46 10° WNW 23:02:51 37° NNE 23:05:57 10° E
Terra 3.7 23:00:09 11° SW 23:03:39 22° W 23:07:21 10° NW
Lacrosse 5 3.9 23:03:36 10° W 23:06:18 14° WSW 23:07:55 13° SW
Cosmos 1869 3.6 23:03:40 10° N 23:07:28 52° ENE 23:08:43 36° SE
Cosmos 2218 Rocket 4.1 23:02:38 10° N 23:09:06 79° E 23:12:46 28° SSE
Meteor 1-27 4.2 23:04:34 10° N 23:10:09 72° ENE 23:13:00 29° SSE
BREEZE-M DEB (TANK) 3.5 23:07:18 10° W 23:10:14 78° N 23:20:27 10° E
Cosmos 2366 rocket 4.0 23:05:01 10° N 23:11:22 82° E 23:14:58 28° SSE
Cosmos 1992 Rocket 4.5 23:09:46 30° SSE 23:11:44 43° ESE 23:16:41 10° NE
Cosmos 2058 Rocket 3.2 23:07:42 10° NNW 23:12:06 67° W 23:14:00 33° S
COSMOS 2406 3.3 23:07:52 15° SSW 23:12:42 81° WNW 23:18:30 10° NNE
Cosmos 1892 Rocket 4.0 23:10:35 23° SSW 23:13:09 57° WNW 23:17:30 10° N
Cosmos 2369 3.8 23:08:20 10° NNW 23:14:01 66° WSW 23:16:53 30° S
SL-16 R/B 3.3 23:09:04 10° NNW 23:14:21 38° NE 23:18:42 14° ESE
Cosmos 1892 2.6 23:13:06 38° SSW 23:14:25 79° W 23:18:12 10° N
TIMED 4.5 23:13:44 36° S 23:15:22 67° ESE 23:19:44 10° NNE
Cosmos-2242 4.1 23:14:39 10° N 23:18:31 33° ENE 23:20:11 24° ESE
Cosmos 2341 Rocket 4.2 23:12:38 10° NNW 23:18:55 65° W 23:22:37 25° SSW
Cosmos 1408 3.0 23:18:48 33° SW 23:20:00 52° WNW 23:23:24 10° N
Cosmos 1980 Rocket 2.3 23:14:23 10° NNW 23:20:03 67° WSW 23:22:48 31° S
USA 234 3.2 23:16:55 21° SE 23:21:31 76° SW 23:28:06 10° NW
Cosmos 1697 Rocket 3.7 23:16:51 10° NW 23:21:51 34° WSW 23:24:33 22° SSW
Cosmos 1626 Rocket 3.5 23:26:41 40° S 23:28:10 73° E 23:32:30 10° NNE
GP-B 4.0 23:26:15 10° NNW 23:30:26 42° W 23:32:44 23° SW
Cosmos 2344 4.5 23:21:39 10° NW 23:30:36 61° WSW 23:38:40 24° SSE
BREEZE-M DEB (TANK) 3.8 23:22:54 10° WSW 23:34:52 70° SSE 23:38:28 10° ENE
In-Cosmos 22 Rocket 4.2 23:32:41 28° SSW 23:35:47 78° WNW 23:41:18 10° N
Cosmos 1503 Rocket 4.4 23:32:39 10° NNW 23:37:54 57° ENE 23:40:43 26° SE
Cosmos 1867 3.6 23:33:00 10° NW 23:38:26 65° WSW 23:40:44 34° SSE
SL-8 R/B 4.4 23:35:14 10° W 23:39:35 34° SSW 23:39:58 34° SSW
Spot 4 4.2 23:39:20 33° SSW 23:41:15 55° W 23:45:58 10° NNW
Cosmos 2084 Rocket 4.1 23:41:55 10° WNW 23:45:29 33° WSW 23:45:49 32° SW
Cosmos 1833 Rocket 4.4 23:45:04 10° WSW 23:49:59 30° NW 23:54:56 10° NNE
Okean 1-7 Rocket 4.0 23:48:43 31° SW 23:50:37 58° WNW 23:55:03 10° N
SJ 16-02 2.2 23:46:47 10° N 23:51:03 44° ENE 23:53:10 25° ESE
Cosmos 2181 Rocket 4.3 23:47:35 23° SSW 23:51:25 59° WNW 23:57:35 10° N
ATLAS 5 CENTAUR R/B 1.2 23:51:32 52° SSE 23:52:02 57° SE 23:56:07 10° NE
Meteor 2-20 4.5 23:49:25 32° S 23:52:25 73° E 23:58:30 10° NNE
Cosmos 2322 Rocket 2.9 23:47:17 10° NNW 23:52:49 51° NE 23:56:45 19° SE
